Regional Weather Roundup
Issued by NWS

Home | Current Version | Previous Version | Text Only | Print | Product List | Glossary Off
Versions: 1 2 3 4 5 6 7 8 9 10 11 12 13 14 15 16 17 18 19 20 21 22 23 24 25 26 27

000
ASUS45 KBOI 170410
RWRID

IDAHO REGIONAL WEATHER ROUNDUP
NATIONAL WEATHER SERVICE BOISE ID
1000 PM MDT MON OCT 16 2017

NOTE: "FAIR" INDICATES FEW OR NO CLOUDS BELOW 12000 FEET
WITH NO SIGNIFICANT WEATHER AND/OR OBSTRUCTIONS TO VISIBILITY

IDZ012-014-170500-
SOUTHWEST IDAHO


CITY           SKY/WX    TMP DP  RH WIND       PRES   REMARKS
BOISE          CLEAR     46  30  53 SE6       30.25S
CALDWELL       CLEAR     47  33  58 CALM      30.25S
MOUNTAIN HOME  CLEAR     43  27  53 CALM      30.25S
$$

IDZ016-017-170500-
SOUTHCENTRAL IDAHO


CITY           SKY/WX    TMP DP  RH WIND       PRES   REMARKS
BURLEY         CLEAR     40  28  62 CALM      30.27S
JEROME         CLEAR     51  23  33 CALM      30.28S
TWIN FALLS     CLEAR     36  28  73 SW3       30.28S
$$

IDZ019>023-170500-
SOUTHEAST IDAHO


CITY           SKY/WX    TMP DP  RH WIND       PRES   REMARKS
IDAHO FALLS    CLOUDY    37  30  75 N3        30.32S
POCATELLO      CLOUDY    38  29  70 CALM      30.31R
REXBURG        CLOUDY    36  25  64 NE6       30.33R WCI  31
$$

IDZ006-010-011-018-031-032-170500-
CENTRAL IDAHO MOUNTAINS


CITY           SKY/WX    TMP DP  RH WIND       PRES   REMARKS
MCCALL         CLEAR     37  29  72 CALM      30.28R
HAILEY         CLEAR     43  27  52 NW9       30.33S
STANLEY          N/A     33  23  66 S6        30.36R WCI  28
SALMON         CLEAR     37  28  70 CALM      30.26R
CHALLIS        CLEAR     37  26  64 CALM      30.28R
$$

IDZ002-004-006-007-026-170500-
NORTHERN IDAHO


CITY           SKY/WX    TMP DP  RH WIND       PRES   REMARKS
LEWISTON       CLEAR     56  35  45 CALM      30.11F
LOWELL           N/A     43  42  97 CALM      30.22R
COEUR D`ALENE  CLEAR     51  36  56 SE7       30.10F
MULLAN PASS    CLEAR     44  21  40 SW6       30.19F
$$




USA.gov is the U.S. government's official web portal to all federal, state and local government web resources and services.